Location: Peterborough
(44.3091°N, 78.3197°W)
Time: 05:39:22
(UTC-04:00)

Vanguard 2 - Pass Details

Date: 22 March 2023
Orbit: 552 x 2926 km, 32.9° (Epoch: 04 June)

Event Time Altitude Azimuth Distance (km) Brightness Sun altitude
Rises 08:02:50 0° 235° (SW) 6,700 11.9 8.0°
Reaches altitude 10° 08:07:55 10° 229° (SW) 5,531 11.5 9.0°
Maximum altitude 08:22:05 41° 167° (SSE) 2,890 10.9 11.5°
Drops below altitude 10° 08:31:44 10° 102° (ESE) 3,813 14.8 13.2°
Sets 08:34:32 0° 95° (E) 4,505 13.4 13.6°
